| time (UTC) | temp F | wind direction | speed knots | gust knots | rain 1hr in | rain 24hr in | rain mn in | humidity % | barometer mb |
| 20260506034304 | 70 | 350 | 4.3 | 11.3 | 0.00 | 0.00 | 0.00 | 48 | 1028.2 |
| 20260506033804 | 70 | 27 | 2.6 | 8.7 | 0.00 | 0.00 | 0.00 | 49 | 1028.2 |
| 20260506033303 | 70 | 339 | 1.7 | 7.0 | 0.00 | 0.00 | 0.00 | 46 | 1028.2 |
| 20260506032804 | 70 | 16 | 5.2 | 11.3 | 0.00 | 0.00 | 0.00 | 52 | 1028.1 |
| 20260506032306 | 70 | 8 | 5.2 | 13.0 | 0.00 | 0.00 | 0.00 | 51 | 1028.1 |
| 20260506030804 | 70 | 346 | 1.7 | 7.8 | 0.00 | 0.00 | 0.00 | 39 | 1028.2 |
| 20260506030304 | 70 | 318 | 0.9 | 8.7 | 0.00 | 0.00 | 0.00 | 37 | 1028.2 |
| 20260506025305 | 71 | 20 | 2.6 | 7.0 | 0.00 | 0.00 | 0.00 | 49 | 1028.4 |
| 20260506022804 | 71 | 330 | 1.7 | 2.6 | 0.00 | 0.00 | 0.00 | 46 | 1028.3 |
| 20260506021804 | 71 | 340 | 2.6 | 13.0 | 0.00 | 0.00 | 0.00 | 45 | 1028.3 |
| 20260506021304 | 71 | 348 | 4.3 | 12.2 | 0.00 | 0.00 | 0.00 | 47 | 1028.4 |
| 20260506015804 | 71 | 325 | 1.7 | 4.3 | 0.00 | 0.00 | 0.00 | 32 | 1028.4 |
| 20260506015305 | 70 | 342 | 2.6 | 10.4 | 0.00 | 0.00 | 0.00 | 4 | 1028.5 |
| 20260506014804 | 70 | 325 | 1.7 | 10.4 | 0.00 | 0.00 | 0.00 | 4 | 1028.5 |
| 20260506014303 | 69 | 31 | 6.1 | 10.4 | 0.00 | 0.00 | 0.00 | 4 | 1028.4 |
| 20260506013804 | 69 | 26 | 4.3 | 10.4 | 0.00 | 0.00 | 0.00 | 4 | 1028.5 |
| 20260506013303 | 69 | 350 | 4.3 | 10.4 | 0.00 | 0.00 | 0.00 | 4 | 1028.6 |
| 20260506011804 | 69 | 21 | 4.3 | 10.4 | 0.00 | 0.00 | 0.00 | 4 | 1028.6 |
| 20260506011303 | 69 | 41 | 3.5 | 8.7 | 0.00 | 0.00 | 0.00 | 4 | 1028.7 |
| 20260506010803 | 69 | 346 | 2.6 | 7.8 | 0.00 | 0.00 | 0.00 | 4 | 1028.7 |
| 20260506005804 | 70 | 336 | 1.7 | 7.0 | 0.00 | 0.00 | 0.00 | 4 | 1028.8 |
| 20260506004804 | 69 | 326 | 1.7 | 11.3 | 0.00 | 0.00 | 0.00 | 4 | 1028.8 |
| 20260506001803 | 69 | 29 | 4.3 | 8.7 | 0.00 | 0.00 | 0.00 | 4 | 1029.4 |
| 20260506000304 | 69 | 14 | 4.3 | 10.4 | 0.00 | 0.00 | 0.00 | 4 | 1029.5 |
| 20260505235803 | 69 | 337 | 5.2 | 12.2 | 0.00 | 0.00 | 0.00 | 4 | 1029.6 |
| 20260505235305 | 69 | 53 | 4.3 | 10.4 | 0.00 | 0.00 | 0.00 | 4 | 1029.7 |
| 20260505234803 | 68 | 17 | 5.2 | 10.4 | 0.00 | 0.00 | 0.00 | 4 | 1029.7 |
| 20260505234304 | 68 | 33 | 4.3 | 10.4 | 0.00 | 0.00 | 0.00 | 4 | 1029.8 |
| 20260505233804 | 68 | 15 | 3.5 | 8.7 | 0.00 | 0.00 | 0.00 | 4 | 1029.9 |
| 20260505231303 | 68 | 42 | 3.5 | 7.8 | 0.00 | 0.00 | 0.00 | 4 | 1030.0 |
| 20260505225305 | 68 | 12 | 2.6 | 7.8 | 0.00 | 0.00 | 0.00 | 4 | 1030.3 |
| 20260505223303 | 67 | 345 | 1.7 | 7.0 | 0.00 | 0.00 | 0.00 | 4 | 1030.4 |
| 20260505222804 | 66 | 4 | 2.6 | 5.2 | 0.00 | 0.00 | 0.00 | 4 | 1030.4 |
| 20260505222306 | 66 | 51 | 2.6 | 5.2 | 0.00 | 0.00 | 0.00 | 4 | 1030.4 |
| 20260505221804 | 65 | 336 | 2.6 | 6.1 | 0.00 | 0.00 | 0.00 | 4 | 1030.6 |
| 20260505220803 | 65 | 54 | 2.6 | 5.2 | 0.00 | 0.00 | 0.00 | 4 | 1030.7 |
| 20260505215804 | 64 | 29 | 4.3 | 6.1 | 0.00 | 0.00 | 0.00 | 4 | 1030.7 |
| 20260505215305 | 64 | 32 | 4.3 | 7.8 | 0.00 | 0.00 | 0.00 | 4 | 1030.7 |
| 20260505205803 | 63 | 50 | 2.6 | 7.0 | 0.00 | 0.00 | 0.00 | 4 | 1030.8 |
| 20260505204803 | 62 | 44 | 2.6 | 5.2 | 0.00 | 0.00 | 0.00 | 4 | 1030.8 |
| 20260505204304 | 62 | 41 | 3.5 | 6.1 | 0.00 | 0.00 | 0.00 | 4 | 1030.8 |
| 20260505202807 | 61 | 43 | 1.7 | 2.6 | 0.00 | 0.00 | 0.00 | 4 | 1030.8 |
| 20260505191804 | 59 | 52 | 0.0 | 0.0 | 0.00 | 0.00 | 0.00 | 4 | 1030.3 |
| 20260505190306 | 59 | 56 | 0.9 | 1.7 | 0.00 | 0.00 | 0.00 | 4 | 1030.2 |
| 20260505184304 | 59 | 77 | 0.0 | 0.9 | 0.00 | 0.00 | 0.00 | 4 | 1030.1 |
| 20260505183804 | 59 | 55 | 0.0 | 0.0 | 0.00 | 0.00 | 0.00 | 4 | 1030.2 |
| 20260505182804 | 59 | 68 | 0.0 | 0.0 | 0.00 | 0.00 | 0.00 | 4 | 1030.1 |
| 20260505181804 | 59 | 40 | 0.0 | 0.9 | 0.00 | 0.00 | 0.00 | 4 | 1030.1 |
| 20260505180803 | 59 | 40 | 0.0 | 0.9 | 0.00 | 0.00 | 0.00 | 4 | 1030.1 |
| 20260505180304 | 60 | 42 | 0.0 | 1.7 | 0.00 | 0.00 | 0.00 | 4 | 1030.0 |
| 20260505174803 | 60 | 60 | 0.9 | 2.6 | 0.00 | 0.00 | 0.00 | 4 | 1030.0 |
| 20260505174304 | 60 | 64 | 1.7 | 2.6 | 0.00 | 0.00 | 0.00 | 4 | 1029.9 |
| 20260505173304 | 60 | 75 | 0.9 | 2.6 | 0.00 | 0.00 | 0.00 | 4 | 1030.0 |
| 20260505172804 | 60 | 73 | 0.0 | 0.9 | 0.00 | 0.00 | 0.00 | 4 | 1030.0 |
| 20260505172305 | 60 | 90 | 0.0 | 0.9 | 0.00 | 0.00 | 0.00 | 4 | 1030.1 |
| 20260505170805 | 60 | 88 | 0.9 | 1.7 | 0.00 | 0.00 | 0.00 | 4 | 1030.2 |
| 20260505164304 | 60 | 109 | 0.9 | 1.7 | 0.00 | 0.00 | 0.00 | 4 | 1030.3 |
| 20260505163305 | 60 | 27 | 0.0 | 1.7 | 0.00 | 0.00 | 0.00 | 4 | 1030.4 |
| 20260505162805 | 60 | 84 | 0.9 | 2.6 | 0.00 | 0.00 | 0.00 | 4 | 1030.3 |
| 20260505162306 | 60 | 76 | 1.7 | 2.6 | 0.00 | 0.00 | 0.00 | 4 | 1030.2 |
| 20260505160804 | 60 | 48 | 1.7 | 4.3 | 0.00 | 0.00 | 0.00 | 4 | 1030.2 |
| 20260505160304 | 60 | 51 | 2.6 | 6.1 | 0.00 | 0.00 | 0.00 | 4 | 1030.2 |
| 20260505151305 | 60 | 47 | 2.6 | 6.1 | 0.00 | 0.00 | 0.00 | 4 | 1030.4 |
| 20260505150805 | 60 | 49 | 2.6 | 4.3 | 0.00 | 0.00 | 0.00 | 4 | 1030.5 |
| 20260505140304 | 61 | 50 | 1.7 | 4.3 | 0.00 | 0.00 | 0.00 | 4 | 1031.1 |
| 20260505130304 | 61 | 43 | 0.9 | 2.6 | 0.00 | 0.00 | 0.00 | 4 | 1031.7 |
| 20260505124804 | 61 | 47 | 1.7 | 2.6 | 0.00 | 0.00 | 0.00 | 4 | 1031.7 |
| 20260505123804 | 62 | 45 | 1.7 | 2.6 | 0.00 | 0.00 | 0.00 | 4 | 1031.6 |
| 20260505122305 | 62 | 61 | 1.7 | 4.3 | 0.00 | 0.00 | 0.00 | 4 | 1031.7 |
| 20260505121305 | 62 | 56 | 2.6 | 4.3 | 0.00 | 0.00 | 0.00 | 4 | 1031.7 |
| 20260505120823 | 62 | 41 | 1.7 | 2.6 | 0.00 | 0.00 | 0.00 | 4 | 1031.8 |
| 20260505120305 | 62 | 64 | 2.6 | 2.6 | 0.00 | 0.00 | 0.00 | 4 | 1031.8 |
| 20260505115305 | 62 | 50 | 2.6 | 4.3 | 0.00 | 0.00 | 0.00 | 4 | 1031.8 |
| 20260505114304 | 62 | 61 | 2.6 | 4.3 | 0.00 | 0.00 | 0.00 | 4 | 1031.7 |
| 20260505113805 | 62 | 70 | 1.7 | 4.3 | 0.00 | 0.00 | 0.00 | 4 | 1031.7 |
| 20260505113304 | 62 | 65 | 1.7 | 2.6 | 0.00 | 0.00 | 0.00 | 4 | 1031.6 |
| 20260505112804 | 62 | 61 | 1.7 | 4.3 | 0.00 | 0.00 | 0.00 | 4 | 1031.7 |
| 20260505112305 | 62 | 44 | 2.6 | 4.3 | 0.00 | 0.00 | 0.00 | 4 | 1031.7 |
| 20260505111804 | 62 | 39 | 1.7 | 4.3 | 0.00 | 0.00 | 0.00 | 4 | 1031.9 |
| 20260505110305 | 62 | 39 | 1.7 | 2.6 | 0.00 | 0.00 | 0.00 | 4 | 1031.9 |
| 20260505101804 | 62 | 34 | 1.7 | 4.3 | 0.00 | 0.00 | 0.00 | 4 | 1032.2 |
| 20260505101305 | 62 | 46 | 2.6 | 4.3 | 0.00 | 0.00 | 0.00 | 4 | 1032.2 |
| 20260505100305 | 62 | 51 | 2.6 | 4.3 | 0.00 | 0.00 | 0.00 | 4 | 1032.2 |
| 20260505095305 | 62 | 51 | 1.7 | 2.6 | 0.00 | 0.00 | 0.00 | 4 | 1032.2 |
| 20260505094804 | 62 | 65 | 0.9 | 1.7 | 0.00 | 0.00 | 0.00 | 4 | 1032.2 |
| 20260505094305 | 61 | 66 | 0.9 | 2.6 | 0.00 | 0.00 | 0.00 | 4 | 1032.2 |
| 20260505092804 | 61 | 39 | 0.9 | 2.6 | 0.00 | 0.00 | 0.00 | 4 | 1032.2 |
| 20260505091805 | 61 | 43 | 0.9 | 1.7 | 0.00 | 0.00 | 0.00 | 4 | 1032.2 |
| 20260505085810 | 61 | 58 | 0.0 | 0.9 | 0.00 | 0.00 | 0.00 | 4 | 1032.1 |
| 20260505083806 | 61 | 72 | 0.0 | 0.9 | 0.00 | 0.00 | 0.00 | 4 | 1032.0 |
| 20260505082305 | 61 | 71 | 0.0 | 0.9 | 0.00 | 0.00 | 0.00 | 4 | 1032.0 |
| 20260505081304 | 61 | 76 | 0.9 | 1.7 | 0.00 | 0.00 | 0.00 | 4 | 1032.0 |
| 20260505080804 | 61 | 57 | 0.9 | 2.6 | 0.00 | 0.00 | 0.00 | 4 | 1031.9 |
| 20260505080305 | 61 | 80 | 1.7 | 2.6 | 0.00 | 0.00 | 0.00 | 4 | 1031.9 |
| 20260505075305 | 62 | 84 | 1.7 | 2.6 | 0.00 | 0.00 | 0.00 | 4 | 1031.9 |
| 20260505074804 | 62 | 76 | 1.7 | 2.6 | 0.00 | 0.00 | 0.00 | 4 | 1031.9 |
| 20260505074305 | 62 | 66 | 1.7 | 4.3 | 0.00 | 0.00 | 0.00 | 4 | 1032.0 |
| 20260505072805 | 62 | 50 | 1.7 | 4.3 | 0.00 | 0.00 | 0.00 | 4 | 1031.9 |
| 20260505072305 | 62 | 47 | 2.6 | 5.2 | 0.00 | 0.00 | 0.00 | 4 | 1031.8 |
| 20260505071804 | 62 | 59 | 2.6 | 5.2 | 0.00 | 0.00 | 0.00 | 4 | 1031.9 |
| 20260505070804 | 62 | 53 | 4.3 | 7.0 | 0.00 | 0.00 | 0.00 | 4 | 1031.8 |
| 20260505064804 | 63 | 64 | 3.5 | 7.8 | 0.00 | 0.00 | 0.00 | 4 | 1031.7 |
| 20260505064304 | 63 | 47 | 4.3 | 6.1 | 0.00 | 0.00 | 0.00 | 4 | 1031.7 |
| 20260505063306 | 63 | 36 | 5.2 | 7.8 | 0.00 | 0.00 | 0.00 | 4 | 1031.7 |
| 20260505062805 | 63 | 44 | 3.5 | 6.1 | 0.00 | 0.00 | 0.00 | 4 | 1031.7 |
| 20260505061305 | 63 | 65 | 4.3 | 7.8 | 0.00 | 0.00 | 0.00 | 4 | 1031.7 |
| 20260505060304 | 63 | 49 | 4.3 | 8.7 | 0.00 | 0.00 | 0.00 | 4 | 1031.7 |
| 20260505055304 | 63 | 51 | 3.5 | 7.0 | 0.00 | 0.00 | 0.00 | 4 | 1031.7 |
| 20260505054304 | 63 | 24 | 2.6 | 7.0 | 0.00 | 0.00 | 0.00 | 4 | 1031.7 |
| 20260505051804 | 63 | 54 | 3.5 | 7.8 | 0.00 | 0.00 | 0.00 | 4 | 1031.7 |
| 20260505051305 | 63 | 48 | 3.5 | 10.4 | 0.00 | 0.00 | 0.00 | 4 | 1031.7 |
| 20260505050304 | 64 | 42 | 2.6 | 8.7 | 0.00 | 0.00 | 0.00 | 4 | 1031.8 |
| 20260505040804 | 64 | 61 | 5.2 | 10.4 | 0.00 | 0.00 | 0.00 | 4 | 1031.9 |
| 20260505040304 | 64 | 48 | 4.3 | 10.4 | 0.00 | 0.00 | 0.00 | 4 | 1031.8 |
| 20260505035304 | 64 | 50 | 6.1 | 10.4 | 0.00 | 0.00 | 0.00 | 4 | 1031.8 |
| 20260505034804 | 64 | 47 | 4.3 | 10.4 | 0.00 | 0.00 | 0.00 | 4 | 1031.7 |